Terminal Aerodrome Forecast
Issued by NWS

Home | Current Version | Previous Version | Text Only | Print | Product List | Glossary On
Versions: 1 2 3 4 5 6 7 8 9 10 11 12 13 14 15 16
000
FTUS45 KRIW 232300
TAFWRL
TAF
KWRL 232329Z 2400/2424 20011KT P6SM VCSH SCT110 SCT150
     FM240200 15006KT P6SM FEW150
     FM242100 27014G22KT P6SM FEW120=

USA.gov is the U.S. government's official web portal to all federal, state and local government web resources and services.